[[{"header":{"parameterUnit":"m.s-1","parameterCategory":1,"la1":30.2991,"la2":30.254,"lo1":-89.0895,"lo2":-89.0444,"dy":0.0017,"dx":0.0017,"nx":28,"ny":28,"refTime":"2023-10-20T09:00:00:Z","depth":0,"parameterNumber":2,"parameterNumberName":"U-component_of_WINDS"},"data":[0,0,0,0,0,0,0,0,0,0,0,0,0,0,0,0,0,0,0,0,0,0,0,0,0,0,0,0,0,0,0,0,0,0,0,0,0,0,0,0,0,0,0,0,0,0,0,0,0,0,0,0,0,0,0,0,0,0,3.8919,3.892,0,3.8962,3.8962,3.8963,3.8866,3.8863,3.886,3.8857,3.8904,3.8908,3.8912,0,0,0,0,0,0,0,0,0,0,0,0,0,3.8758,3.8761,3.8919,3.892,3.892,3.8962,3.8962,3.8963,3.8867,3.8863,3.8859,3.8856,3.8903,3.8908,3.8913,0,0,0,0,0,0,0,0,0,0,0,0,0,3.8817,3.8763,3.8919,3.8877,3.8874,3.8961,3.8962,3.8963,3.8867,3.8863,3.8858,3.8854,3.8901,3.8907,3.8913,3.9045,0,0,3.8932,3.8935,0,0,0,0,0,0,0,0,3.8814,3.8823,3.8883,3.888,3.8876,3.8904,3.8923,3.8991,3.8869,3.887,3.8857,3.8852,3.8908,3.8913,3.8932,3.9047,3.9049,3.8933,3.8937,3.8939,3.8941,0,0,0,0,0,0,0,3.881,3.8821,3.8936,3.8884,3.888,3.8857,3.8861,3.8935,3.8915,3.8869,3.8863,3.8869,3.8905,3.8926,3.8932,3.905,3.8933,3.8938,3.8942,3.8944,3.9276,3.9281,0,0,0,0,0,0,3.8811,3.8818,3.8935,3.8937,3.8833,3.8864,3.8868,3.89,3.8914,3.8911,3.8873,3.8864,3.8918,3.8925,3.8933,3.9089,3.8939,3.8945,3.8949,3.9271,3.9277,3.9283,0,0,0,0,0,0,3.8808,3.8822,3.8933,3.8876,3.8888,3.8872,3.8909,3.8903,3.8923,3.8916,3.8912,3.8897,3.8914,3.8925,3.9018,3.9089,3.8948,3.8954,3.9265,3.9273,3.928,3.94,0,0,0,0,0,0,3.8803,3.8821,3.887,3.8878,3.8892,3.9016,3.8913,3.8907,3.8934,3.8923,3.8938,3.8936,3.8911,3.9009,3.9024,3.9095,3.8958,3.9259,3.9268,3.9277,3.939,3.9411,3.9429,0,0,0,0,0,3.8798,3.8903,3.8873,3.8888,3.8952,3.902,3.9028,3.8997,3.894,3.899,3.8985,3.8935,3.9079,3.9019,3.9035,3.9109,3.9254,3.9266,3.9277,3.9381,3.9407,3.9429,0,0,0,0,0,0,3.8906,3.8903,3.887,3.898,3.9001,3.9004,3.9065,3.9025,3.9063,3.9052,3.9012,3.9016,3.9118,3.9122,3.9056,3.9238,3.9157,3.9172,3.9231,3.9255,3.9275,3.9272,3.8964,0,0,0,0,0,3.8942,3.8996,3.8992,3.909,3.9101,3.9082,3.911,3.9084,3.9105,3.9113,3.9115,3.9138,3.9188,3.9222,3.9267,3.939,3.9393,3.9449,3.9469,3.9485,3.9499,3.9565,3.959,3.932,3.932,3.932,0,0,3.9018,3.9023,3.906,3.9111,3.9124,3.9183,3.909,3.9155,3.9199,3.9123,3.9211,3.9214,3.9237,3.9345,3.9393,3.9353,3.9574,3.9499,3.9512,3.9517,3.9579,3.9605,3.9628,3.9328,3.9326,3.9325,0,0,3.9186,3.9196,3.9278,3.9293,3.9314,3.93,3.932,3.9329,3.9328,3.9415,3.936,3.9412,3.9499,3.9517,3.9538,3.9715,3.9671,3.9731,3.9834,3.9899,3.992,3.9939,4.0003,4.0026,3.9744,3.9745,3.9745,0,3.9279,3.9363,3.9326,3.9396,3.9421,3.9354,3.9439,3.9455,3.949,3.951,3.9463,3.9571,3.9582,3.9694,3.9738,3.9756,3.9779,3.9729,3.992,3.9938,3.9955,4.0016,4.004,3.9752,3.9751,3.975,3.975,0,3.9476,3.9536,3.9601,3.9635,3.9667,3.9744,3.972,3.9757,3.9729,3.972,3.9811,3.9821,3.9868,3.9893,3.9866,4.0003,3.9977,3.9926,3.9844,3.9989,4.0045,4.0068,3.9762,3.976,3.9758,3.9756,0,0,3.9713,3.9727,3.9751,3.9767,3.9785,3.9831,3.9905,3.995,3.9983,4.001,4.0072,4.0147,4.01,4.0124,4.0099,4.0156,4.0297,4.0098,4.0098,4.0136,4.0449,4.0488,4.0515,4.0268,4.0272,4.0275,4.0447,0,3.988,4.0007,3.9976,4.0102,4.0158,4.0096,4.0161,4.018,4.0175,4.0222,4.0216,4.027,4.0204,4.0218,4.0272,4.0268,4.0359,4.0256,4.0327,4.0329,4.0323,4.0544,4.0585,4.0747,4.0469,4.0473,4.0475,0,4.0092,4.0126,4.0258,4.0267,4.0289,4.0348,4.0387,4.0433,4.0454,4.0446,4.0473,4.0437,4.0512,4.0429,4.0532,4.0462,4.049,4.0493,4.0498,4.0504,4.0412,4.0557,4.0797,4.0822,4.0509,4.0507,4.0504,0,4.0253,4.0332,4.0421,4.0436,4.0449,4.0492,4.05,4.0516,4.0545,4.058,4.0599,4.0643,4.0667,4.0702,4.0679,4.0621,4.0787,4.0702,4.0784,4.0784,4.0822,4.082,4.1071,4.0839,4.0838,4.0838,4.0837,0,4.0443,4.0526,4.0493,4.0548,4.0639,4.0604,4.0696,4.0697,4.0712,4.0767,4.0717,4.0769,4.0736,4.0786,4.0769,4.0858,4.0869,4.0866,4.086,4.0871,4.0871,4.0888,4.0877,4.0844,4.0843,4.0842,4.084,0,4.0638,4.0619,4.0712,4.0717,4.0721,4.0788,4.0793,4.0845,4.0836,4.0906,4.092,4.0907,4.0964,4.0944,4.1005,4.0994,4.1107,4.1087,4.11,4.1095,4.1178,4.1171,4.145,4.1485,4.123,4.1232,4.1234,0,4.0761,4.0823,4.0835,4.0868,4.0879,4.0932,4.0962,4.093,4.0963,4.0992,4.1041,4.1093,4.1133,4.1227,4.1224,4.1271,4.1251,4.1346,4.1258,4.1267,4.1254,4.1251,4.1257,4.1364,4.1367,4.1369,4.1371,0,4.0981,4.0969,4.1013,4.1054,4.1091,4.1122,4.1149,4.1179,4.1149,4.1189,4.1246,4.1277,4.134,4.1393,4.1435,4.1444,4.1404,4.1398,4.142,4.1431,4.1437,4.1436,4.1148,4.1392,4.139,4.1389,4.1387,4.1387,4.1144,4.1197,4.1214,4.1265,4.1282,4.1308,4.1357,4.1354,4.1401,4.1448,4.1427,4.1494,4.1514,4.1566,4.1582,4.1634,4.1598,4.1629,4.1637,4.1645,4.1656,4.1428,4.1642,4.1641,4.164,4.164,4.1639,0,4.1362,4.137,4.1418,4.1456,4.1497,4.1454,4.1482,4.1519,4.1578,4.16,4.164,4.1707,4.1758,4.1759,4.1807,4.1849,4.1831,4.1862,4.1859,4.1862,4.1685,4.1662,4.1876,4.1876,4.1876,4.1876,4.1875,4.1875,4.1481,4.1568,4.1558,4.1654,4.1661,4.1725,4.1745,4.177,4.1787,4.1863,4.1905,4.1905,4.1919,4.1967,4.2013,4.2012,4.2032,4.2071,4.2063,4.1898,4.1875,4.1852,4.183,4.2076,4.2076,4.2236,4.2237,4.2238]},{"header":{"parameterUnit":"m.s-1","parameterCategory":1,"la1":30.2991,"la2":30.254,"lo1":-89.0895,"lo2":-89.0444,"dy":0.0017,"dx":0.0017,"nx":28,"ny":28,"refTime":"2023-10-20T09:00:00:Z","depth":0,"parameterNumber":3,"parameterNumberName":"V-component_of_WINDS"},"data":[0,0,0,0,0,0,0,0,0,0,0,0,0,0,0,0,0,0,0,0,0,0,0,0,0,0,0,0,0,0,0,0,0,0,0,0,0,0,0,0,0,0,0,0,0,0,0,0,0,0,0,0,0,0,0,0,0,0,0.9273,0.9274,0,0.933,0.9331,0.9332,0.9323,0.9322,0.9321,0.932,0.9377,0.938,0.9382,0,0,0,0,0,0,0,0,0,0,0,0,0,0.9156,0.9158,0.9273,0.9274,0.9275,0.933,0.9331,0.9332,0.9323,0.9322,0.9321,0.9319,0.9377,0.9379,0.9382,0,0,0,0,0,0,0,0,0,0,0,0,0,0.9209,0.9159,0.9273,0.9277,0.9278,0.933,0.9331,0.9332,0.9323,0.9322,0.932,0.9319,0.9376,0.9379,0.9383,0.9435,0,0,0.9394,0.9395,0,0,0,0,0,0,0,0,0.9206,0.9213,0.9276,0.9277,0.9278,0.9318,0.9311,0.9366,0.9324,0.9306,0.932,0.9318,0.9359,0.9364,0.9378,0.9437,0.944,0.9394,0.9396,0.9398,0.9399,0,0,0,0,0,0,0,0.9202,0.9211,0.9296,0.9277,0.9278,0.9276,0.9282,0.9321,0.934,0.9307,0.9307,0.9314,0.9359,0.9374,0.9379,0.9441,0.9394,0.9397,0.94,0.9401,0.9545,0.9546,0,0,0,0,0,0,0.9198,0.9208,0.9294,0.9298,0.9238,0.9279,0.9286,0.9307,0.9339,0.9343,0.9315,0.9313,0.9369,0.9375,0.9381,0.9443,0.9398,0.9401,0.9404,0.9543,0.9545,0.9547,0,0,0,0,0,0,0.9195,0.9206,0.9292,0.9253,0.9263,0.9282,0.9306,0.9309,0.9324,0.9345,0.9348,0.9327,0.9368,0.9376,0.9421,0.9445,0.9403,0.9406,0.9541,0.9544,0.9546,0.9569,0,0,0,0,0,0,0.9192,0.9205,0.9225,0.9253,0.9266,0.9332,0.9308,0.9311,0.933,0.9328,0.9357,0.9361,0.9367,0.9416,0.9425,0.9449,0.9409,0.9539,0.9542,0.9545,0.9566,0.9572,0.9576,0,0,0,0,0,0.9188,0.9229,0.9226,0.9236,0.9291,0.9333,0.934,0.9347,0.9332,0.9352,0.9366,0.936,0.9441,0.9421,0.9431,0.9457,0.9538,0.9542,0.9545,0.9563,0.957,0.9576,0,0,0,0,0,0,0.9203,0.9233,0.923,0.9281,0.9305,0.9332,0.9357,0.9354,0.9382,0.9379,0.9386,0.9393,0.9439,0.9452,0.9429,0.9508,0.9487,0.9493,0.9498,0.9505,0.951,0.9505,0.9412,0,0,0,0,0,0.9212,0.9244,0.9268,0.9311,0.9323,0.9338,0.9357,0.936,0.9384,0.9394,0.9411,0.9435,0.9466,0.9486,0.9515,0.9568,0.9574,0.9591,0.9596,0.96,0.9605,0.9633,0.9641,0.9559,0.9559,0.9559,0,0,0.9231,0.9252,0.9271,0.9315,0.9333,0.9366,0.9347,0.9382,0.9406,0.9399,0.9443,0.9457,0.9484,0.9533,0.9555,0.9545,0.9629,0.9605,0.9608,0.9611,0.9637,0.9645,0.9652,0.9561,0.9561,0.9561,0,0,0.9283,0.9302,0.934,0.9359,0.9387,0.9397,0.9406,0.9433,0.9442,0.9487,0.9482,0.9511,0.9564,0.9583,0.9599,0.9658,0.9653,0.9668,0.9695,0.9723,0.9729,0.9735,0.9755,0.9763,0.9673,0.9673,0.9673,0,0.9304,0.9353,0.936,0.9395,0.9414,0.941,0.9448,0.9466,0.9503,0.9516,0.9504,0.9571,0.9588,0.9641,0.9656,0.967,0.968,0.9664,0.9728,0.9733,0.9739,0.9758,0.9766,0.9674,0.9674,0.9674,0.9674,0,0.9376,0.941,0.9438,0.9473,0.9495,0.9532,0.9544,0.9565,0.9566,0.9577,0.9622,0.9643,0.9677,0.969,0.9691,0.9743,0.9736,0.9726,0.9705,0.9748,0.9767,0.9774,0.9676,0.9676,0.9675,0.9675,0,0,0.9439,0.9478,0.9488,0.9504,0.9535,0.9561,0.9597,0.963,0.9648,0.9674,0.9704,0.9749,0.974,0.9758,0.9762,0.9786,0.9831,0.9773,0.9774,0.9783,0.9888,0.9895,0.9904,0.9828,0.9829,0.983,0.9886,0,0.9494,0.9558,0.9565,0.9623,0.9654,0.9651,0.9682,0.9704,0.9715,0.9743,0.9755,0.9786,0.9772,0.9783,0.9807,0.982,0.9852,0.9816,0.9855,0.9857,0.9848,0.9914,0.9921,0.9973,0.9893,0.9894,0.9895,0,0.9566,0.9594,0.9654,0.9681,0.9694,0.9722,0.9753,0.978,0.9804,0.9811,0.9832,0.9832,0.9869,0.9847,0.9897,0.9873,0.9889,0.9898,0.99,0.9903,0.9878,0.9919,0.9989,0.9997,0.9907,0.9906,0.9905,0,0.9605,0.9658,0.97,0.9714,0.9746,0.9766,0.978,0.9804,0.9823,0.985,0.9862,0.9893,0.9909,0.9932,0.9941,0.9924,0.9991,0.9969,0.9996,0.9996,1.001,1.0009,1.0084,1.0021,1.0021,1.0021,1.0021,0,0.9665,0.9702,0.9718,0.9745,0.9786,0.9794,0.9834,0.9847,0.9868,0.9896,0.9895,0.9922,0.9931,0.9959,0.9966,1.0006,1.0014,1.0019,1.0021,1.0019,1.0019,1.003,1.0026,1.0023,1.0023,1.0022,1.0022,0,0.9716,0.9728,0.9775,0.9801,0.9809,0.9838,0.986,0.9885,0.9896,0.9932,0.9941,0.9957,0.999,1.0001,1.004,1.0045,1.0092,1.009,1.0083,1.0083,1.011,1.0107,1.0194,1.0206,1.0136,1.0136,1.0137,0,0.9753,0.9782,0.9811,0.983,0.9845,0.9876,0.9896,0.9904,0.9925,0.9955,0.9977,1.0009,1.0036,1.0088,1.0103,1.0133,1.0132,1.0161,1.0137,1.0134,1.0132,1.013,1.0133,1.0165,1.0166,1.0166,1.0167,0,0.9818,0.9822,0.9851,0.9882,0.9906,0.9931,0.9954,0.997,0.9982,1.0005,1.0039,1.0059,1.01,1.0132,1.0163,1.0177,1.0174,1.0174,1.0182,1.0181,1.0176,1.0178,1.0095,1.0172,1.0172,1.0171,1.0171,1.0171,0.9862,0.9887,0.9912,0.9944,0.9963,0.9985,1.001,1.0024,1.0052,1.0086,1.009,1.0126,1.0149,1.019,1.0206,1.0234,1.0225,1.0237,1.024,1.0242,1.0244,1.0172,1.0239,1.0239,1.0239,1.0239,1.0239,0,0.9926,0.9942,0.9972,1.0005,1.003,1.0026,1.0052,1.0073,1.0105,1.0128,1.0154,1.0192,1.0223,1.0241,1.0272,1.0291,1.029,1.0299,1.0297,1.03,1.025,1.024,1.0299,1.0299,1.0299,1.0299,1.0299,1.0299,0.9963,1.0005,1.0012,1.0063,1.0079,1.0115,1.013,1.015,1.0168,1.0211,1.0237,1.0249,1.0269,1.0301,1.033,1.0334,1.0345,1.0354,1.0358,1.031,1.0304,1.0298,1.0289,1.0357,1.0357,1.0406,1.0406,1.0406]}]]